Location: ???????
(33.3094°N, 35.6542°E)
Time: 11:43:36
(UTC+00:00)

Daily predictions for brighter satellites

Satellite Brightness Start Highest point End
(mag) Time Altitude Azimuth Time Altitude Azimuth Time Altitude Azimuth
USA 238 DEB 4.1 16:48:10 10° S 16:54:06 37° ESE 17:00:10 10° NE
USA 238 4.1 16:48:19 10° S 16:54:12 37° ESE 17:00:16 10° NE
SL-08 RB Rocket 4.4 16:50:26 10° SE 16:54:38 36° ENE 16:58:53 10° N
Cosmos 1782 2.8 16:50:54 10° N 16:54:55 75° E 16:58:56 10° S
CSL-04 Rocket 3.9 16:50:43 10° S 16:55:59 73° WSW 17:01:16 10° NNW
CZ-4 R/B 3.6 16:55:50 10° SSW 16:59:10 27° W 17:02:34 10° NW
SJ-11-01 4.5 16:56:45 10° S 17:01:29 79° WSW 17:06:14 10° NNW
BREEZE M DEB (TANK) 4.5 17:02:05 10° WSW 17:02:54 11° SW 17:03:42 10° SSW
ARGOS 3.2 16:59:22 10° SSE 17:04:43 70° ENE 17:10:04 10° N
CENTAUR R/B 3.3 17:01:26 10° SSE 17:05:38 22° ESE 17:10:15 10° ENE
Cosmos 1805 Rocket 3.6 17:02:00 10° S 17:06:19 58° E 17:10:42 10° NNE
Ariane Rocket 3.2 17:03:56 10° SSE 17:08:50 53° ENE 17:13:44 10° N
Yuri Rocket 4.2 17:06:07 10° SW 17:09:54 25° SSE 17:12:36 14° ESE
FREGAT/IRIS 3.1 17:07:51 12° SE 17:09:56 31° ENE 17:12:20 10° N
Cosmos 972 Rocket 3.8 17:05:21 10° N 17:10:15 74° ENE 17:15:14 10° SSE
Cosmos 220 Rocket 4.5 17:06:45 10° N 17:10:45 40° ENE 17:14:25 12° SE
Cosmos 2082 Rocket 2.2 17:05:35 10° S 17:11:10 60° ESE 17:16:45 10° NNE
COSMOS 2406 4.3 17:05:39 10° SW 17:11:13 51° WNW 17:16:48 10° N
CZ-2C R/B 2.6 17:08:08 10° NNE 17:13:16 59° E 17:18:28 10° S
Skynet4D Del rocket 4.1 17:08:26 10° WSW 17:13:28 43° S 17:17:43 15° ESE
Cosmos 407 Rocket 3.5 17:08:15 10° SSW 17:13:36 86° ESE 17:18:54 10° NNE
deb Kosmos-1763 4.3 17:10:49 10° S 17:14:16 46° ESE 17:17:45 10° NNE
Cosmos 1190 Rocket 4.0 17:10:27 10° S 17:15:40 71° ESE 17:20:57 10° NNE
IRIDIUM 106 4.4 17:11:58 10° SSE 17:17:02 56° E 17:22:08 10° N
Cosmos 2369 4.5 17:13:46 10° N 17:19:00 36° ENE 17:23:00 16° ESE
Cosmos 1633 Rocket 3.8 17:20:18 10° SSE 17:24:14 33° E 17:28:12 10° NNE
Cosmos 1140 Rocket 3.5 17:20:18 10° SSW 17:25:32 85° ESE 17:30:48 10° NNE
MetOp-A 4.3 17:21:46 10° SSE 17:26:51 53° ENE 17:32:03 10° N
BREEZE-M DEB (TANK) 2.5 17:22:55 10° NW 17:27:50 45° NNE 17:29:15 23° E
Intercosmos 25 3.4 17:30:42 10° N 17:33:55 39° E 17:35:01 28° SE
Cosmos 1818 3.6 17:29:02 10° NNW 17:34:28 69° ENE 17:38:14 20° SE
Aureole 1 Rocket 4.3 17:29:40 10° S 17:36:07 75° ESE 17:44:10 10° NNE
ATLAS 5 CENTAUR R/B 2.9 17:32:42 10° NW 17:38:48 66° WSW 17:45:23 11° SSE
Cosmos 2084 Rocket 4.0 17:35:52 10° S 17:39:32 31° ESE 17:43:16 10° NE
X-37B 3.8 17:42:30 10° N 17:42:48 10° N 17:43:06 10° N
NOSS 3-2 (A) 3.3 17:40:10 10° SSW 17:45:38 83° WNW 17:51:46 10° NNE
Cosmos 1707 Rocket 3.6 17:41:59 10° N 17:46:15 55° E 17:48:15 28° SSE
Cosmos 1980 Rocket 2.9 17:42:08 10° N 17:47:19 36° ENE 17:49:28 26° ESE
USA 186 3.3 17:45:52 11° SSW 17:47:33 22° W 17:49:24 10° NW
OBJECT-B 0.9 17:46:56 41° SE 17:47:46 57° ENE 17:51:01 10° N
H-2A R/B 4.3 17:44:57 10° NE 17:48:22 29° E 17:48:22 29° E
Cosmos 1656 4.3 17:45:24 10° NNW 17:50:45 53° WSW 17:56:04 10° S
Cosmos 1470 Rocket 4.1 17:51:08 34° ESE 17:51:54 37° E 17:55:57 10° NNE
Genesis I 4.2 17:48:43 10° N 17:52:10 30° NE 17:52:42 29° ENE
CZ-2C R/B 3.6 17:49:48 10° NNE 17:54:22 88° WNW 17:58:49 10° SSW
NOSS 3-2 (C) 3.1 17:49:29 10° SSW 17:54:54 66° ESE 18:00:54 10° NE
USA 267 3.1 17:49:30 10° NE 17:56:03 77° SE 18:02:35 10° SW
H-2A R/B 4.1 17:53:01 10° SSW 17:57:12 25° W 18:01:19 10° NW
SJ-6B 3.8 17:54:22 11° S 17:58:04 47° W 18:01:57 10° NNW
Sich 1 4.2 17:54:12 10° SSW 17:58:26 44° W 18:02:40 10° N
SL-8 R/B 4.5 17:55:51 10° WNW 18:00:26 44° SW 18:02:30 28° S
Cosmos 1697 Rocket 2.6 17:55:06 10° NNW 18:00:44 86° WSW 18:03:55 27° SSE
Cosmos 1184 Rocket 2.6 18:00:32 66° SSE 18:00:53 78° E 18:04:11 10° N
Cosmos 1934 Rocket 3.9 17:55:23 10° S 18:01:44 82° E 18:08:07 10° N
Shenzhou-11 Module 3.2 18:01:25 10° NW 18:02:54 32° NW 18:02:54 32° NW
Cosmos 405 Rocket 4.1 18:07:15 25° NE 18:07:15 25° NE 18:09:10 10° NNE
Meteor 1-4 Rocket 2.5 18:04:04 10° N 18:07:15 61° NE 18:07:15 61° NE
USA 32 4.1 18:07:13 39° SE 18:08:52 55° E 18:13:58 10° NNE
Resurs 01 Rocket 1.6 18:10:13 52° SE 18:11:02 65° ENE 18:15:26 10° N
Cosmos 1850 Rocket 4.2 18:10:10 43° SE 18:11:06 48° ESE 18:16:09 10° NNE
Cosmos 1862 Rocket 3.7 18:09:22 10° N 18:13:42 52° E 18:13:46 52° E
Meteor 2-20 4.4 18:10:40 10° N 18:16:50 89° E 18:20:03 30° S
Meteor 1-27 Rocket 4.2 18:15:58 10° NNW 18:21:50 63° W 18:25:45 21° S
SPOT 3 Rocket 3.8 18:21:10 30° S 18:23:41 65° WSW 18:28:52 10° NNW
ATLAS 3B R/B 3.5 18:27:32 29° ENE 18:27:32 29° ENE 18:31:13 10° NE
GP-B 3.0 18:23:13 10° N 18:27:26 70° ENE 18:27:26 70° ENE
Cosmos 192 4.1 18:26:22 10° NNW 18:31:16 77° ENE 18:31:31 74° ESE
CZ-3A R/B 4.2 18:01:55 10° W 18:32:13 47° SSW 18:36:31 33° SSE
Cosmos 1933 Rocket 3.6 18:33:08 66° NNE 18:33:08 66° NNE 18:37:01 10° N
IGS 5A 4.4 18:39:20 39° NNE 18:39:20 39° NNE 18:42:09 10° N
Meteor 1-14 Rocket 4.2 18:40:47 66° ESE 18:41:03 67° E 18:46:55 10° NNE
MetOp-B 3.9 18:41:17 74° SSE 18:41:46 85° ENE 18:47:09 10° NNW
Spot 2 Rocket 3.6 18:45:23 64° NE 18:45:23 64° NE 18:50:03 10° N
Cosmos 1741 Rocket 4.1 18:47:38 58° SW 18:48:38 76° WNW 18:53:54 10° NNE
USA 245 4.4 18:49:21 67° SSE 18:50:17 82° ENE 18:56:37 10° N
SL-16 R/B 3.1 18:47:54 10° N 18:52:22 34° NE 18:52:22 34° NE
CENTAUR R/B 3.4 18:50:13 10° SW 18:55:39 46° NW 19:01:59 10° NNE
Terra 3.7 19:01:13 20° NNE 19:01:13 20° NNE 19:03:10 10° NNE
Cosmos 2100 Rocket 4.4 19:00:45 49° NE 19:00:45 49° NE 19:05:34 10° NNE
Meteor 1-18 Rocket 4.2 18:56:35 10° N 19:01:32 70° NNE 19:01:32 70° NNE
Molniya-1 4.5 19:05:02 73° SSW 19:05:40 88° ESE 19:18:14 10° NNE
Cosmos 2173 Rocket 4.4 19:08:24 49° NE 19:08:24 49° NE 19:13:04 10° NNE
Lacrosse 5 3.1 19:02:43 10° NNW 19:06:26 34° NNE 19:06:26 34° NNE
Cosmos 2322 Rocket 3.2 19:06:33 10° N 19:10:41 37° NNE 19:10:41 37° NNE
Cosmos 1763 Rocket 4.2 19:08:27 10° NNW 19:12:26 51° N 19:12:26 51° N
ATLAS 2A CENTAUR R/B 4.4 18:55:40 10° SW 19:15:55 37° S 19:15:55 37° S
Cosmos 1459 Rocket 4.3 19:23:40 62° NNE 19:23:40 62° NNE 19:28:52 10° N
Cosmos 2360 Rocket 3.9 19:17:47 10° N 19:20:54 23° NE 19:20:54 23° NE
Cosmos 1980 Rocket 3.8 19:26:31 10° NW 19:31:03 25° WSW 19:31:16 25° WSW
Cosmos 2333 Rocket 4.3 19:55:30 10° N 19:57:45 18° NNE 19:57:45 18° NNE
USA 234 4.0 20:10:47 48° N 20:10:47 48° N 20:15:50 10° NNW
ATLAS 3B R/B 3.9 20:14:38 33° WNW 20:15:52 35° NW 20:21:52 10° NNE
SL-16 R/B 4.5 20:32:24 10° NW 20:34:14 18° WNW 20:34:14 18° WNW
Cosmos 2219 Rocket 4.3 20:32:58 10° N 20:35:05 22° N 20:35:05 22° N
Cosmos 2227 Rocket 4.5 22:09:36 20° N 22:09:36 20° N 22:11:16 10° NNE
Cosmos 2263 Rocket 4.4 22:49:31 20° NE 22:49:31 20° NE 22:51:22 10° NE
Resurs 1-4 Rocket 4.3 22:42:45 10° NNE 22:44:27 20° NE 22:44:27 20° NE
SL-16 R/B 4.3 22:44:28 10° NNW 22:46:19 21° N 22:46:19 21° N
SL-16 R/B 3.8 22:52:56 36° NE 22:52:56 36° NE 22:57:14 10° N
ADEOS II 3.9 23:16:50 10° NNE 23:19:37 26° NE 23:19:37 26° NE
Cosmos 1943 4.2 23:44:57 10° N 23:50:15 41° ENE 23:50:49 40° E
CZ-2D R/B 3.7 23:45:24 10° N 23:48:16 29° NNW 23:48:16 29° NNW
ARIANE 5 R/B 3.9 23:46:45 10° NNE 23:50:53 34° E 23:50:53 34° E
